N406BC CO90-KCOS

Flight info

Callsign N406BC
Flight time N/A
Altitude 6500
Route DCT
Aircraft EC45/L-V/N

Departure

Time 2026-04-30 14:53
Airport Usaf Academy Bullseye Aux Airstrip (CO90)

Arrival

Time N/A
Airport City of Colorado Springs Municipal Airport (KCOS)
Time Latitude Longitude Altitude Speed Heading
2026-04-30 14:47 38.75845 -104.30254 6061 ft 0 kts 89°
2026-04-30 14:51 38.75855 -104.30232 6061 ft 6 kts 80°
2026-04-30 14:52 38.75861 -104.30170 6062 ft 8 kts 83°
2026-04-30 14:52 38.75859 -104.30076 6068 ft 9 kts 21°
2026-04-30 14:52 38.75953 -104.30064 6076 ft 50 kts
2026-04-30 14:53 38.77080 -104.30046 6523 ft 89 kts
2026-04-30 14:53 38.77598 -104.30362 6717 ft 87 kts 303°
2026-04-30 14:54 38.77564 -104.32040 6891 ft 110 kts 235°
2026-04-30 14:54 38.76160 -104.32527 6923 ft 112 kts 170°
2026-04-30 14:55 38.74553 -104.32329 7010 ft 121 kts 174°
2026-04-30 14:55 38.73759 -104.32102 7001 ft 113 kts 140°
2026-04-30 14:55 38.73470 -104.30397 6826 ft 102 kts 68°
2026-04-30 14:56 38.74605 -104.29978 6404 ft 81 kts 352°
2026-04-30 14:56 38.75360 -104.30043 6082 ft 16 kts 343°
2026-04-30 14:57 38.75394 -104.30047 6066 ft 3 kts
2026-04-30 14:57 38.76328 -104.30074 6281 ft 97 kts
2026-04-30 14:58 38.77660 -104.30085 6794 ft 95 kts
2026-04-30 14:58 38.78319 -104.30091 7054 ft 95 kts
2026-04-30 14:58 38.79654 -104.30098 7199 ft 105 kts 359°
2026-04-30 14:59 38.81097 -104.30099 7196 ft 104 kts 356°
2026-04-30 15:00 38.82664 -104.32035 7204 ft 109 kts 308°
2026-04-30 15:00 38.82740 -104.33977 7099 ft 116 kts 249°
2026-04-30 15:01 38.81609 -104.35436 6832 ft 119 kts 206°
2026-04-30 15:01 38.81119 -104.35769 6806 ft 122 kts 207°
2026-04-30 15:01 38.79442 -104.37101 6813 ft 120 kts 214°
2026-04-30 15:02 38.78768 -104.37735 6810 ft 124 kts 218°
2026-04-30 15:02 38.78117 -104.38464 6814 ft 124 kts 224°
2026-04-30 15:03 38.77159 -104.41383 6781 ft 118 kts 268°
2026-04-30 15:03 38.77116 -104.43474 6780 ft 116 kts 277°
2026-04-30 15:04 38.77350 -104.45519 6787 ft 116 kts 283°